Weather History for KPHX - October, 2013

Change the Weather History Date:

Tuesday, October 29, 2013

  Actual Average Record
Temperature  
Mean Temperature 68 °F 72 °F  
Max Temperature 74 °F 83 °F 95 °F (2007)
Min Temperature 61 °F 60 °F 40 °F (1971)
Degree Days  
Heating Degree Days 0 1  
Month to date heating degree days 1 1  
Since 1 July heating degree days 1 1  
Cooling Degree Days 3 7  
Month to date cooling degree days 305 354  
Year to date cooling degree days 4912 4523  
Growing Degree Days 17 (Base 50)    
Moisture  
Dew Point 39 °F    
Average Humidity 39    
Maximum Humidity 51    
Minimum Humidity 27    
Precipitation  
Precipitation 0.00 in 0.02 in 0.48 in (1959)
Month to date precipitation T 0.54  
Year to date precipitation 5.60 6.46  
Snow  
Snow 0.00 in - - ()
Month to date snowfall 0.0  
Year to date snowfall 0.0  
Since 1 July snowfall 0.0  
Snow Depth 0.00 in    
Sea Level Pressure  
Sea Level Pressure 29.84 in    
Wind  
Wind Speed 8 mph (West)    
Max Wind Speed 28 mph    
Max Gust Speed 31 mph    
Visibility 10 miles    
Events      
T = Trace of Precipitation, MM = Missing Value Source: NWS Daily Summary

Daily Weather History Graph

Daily Weather History Graph

Search for Another Location

Airport or City:

Trip Planner

Search our weather history database for the weather conditions in past years. The results will help you decide how hot, cold, wet, or windy it might be!

Date:

Astronomy

Oct. 29, 2013 Rise Set
Actual Time 6:44 AM MST 5:38 PM MST
Civil Twilight 6:18 AM MST 6:04 PM MST
Nautical Twilight 5:49 AM MST 6:33 PM MST
Astronomical Twilight 5:20 AM MST 7:02 PM MST
Moon 1:52 AM MST (10/29) 2:41 PM MST (10/29)
Length of Visible Light 11h 45m
Length of Day
10h 54m
Waning Crescent, 24% of the Moon is Illuminated
Oct 29
Waning Crescent
Nov 3
New
Nov 9
First Quarter
Nov 17
Full
Nov 25
Last Quarter

Hourly Weather History & Observations

Time (MST) Temp. Dew Point Humidity Pressure Visibility Wind Dir Wind Speed Gust Speed Precip Events Conditions
12:51 AM 70.0 °F 44.1 °F 39% 29.80 in 10.0 mi West 10.4 mph - N/A   Partly Cloudy
1:51 AM 66.9 °F 43.0 °F 42% 29.82 in 10.0 mi WSW 8.1 mph - N/A   Scattered Clouds
2:51 AM 68.0 °F 43.0 °F 40% 29.81 in 10.0 mi West 13.8 mph - N/A   Scattered Clouds
3:51 AM 66.0 °F 41.0 °F 40% 29.82 in 10.0 mi WNW 6.9 mph - N/A   Scattered Clouds
4:51 AM 63.0 °F 42.1 °F 46% 29.84 in 10.0 mi West 5.8 mph - N/A   Scattered Clouds
5:51 AM 61.0 °F 42.1 °F 50% 29.84 in 10.0 mi WSW 4.6 mph - N/A   Partly Cloudy
6:51 AM 62.1 °F 41.0 °F 46% 29.84 in 10.0 mi NW 4.6 mph - N/A   Partly Cloudy
7:51 AM 62.1 °F 41.0 °F 46% 29.86 in 10.0 mi SW 5.8 mph - N/A   Mostly Cloudy
8:51 AM 64.9 °F 41.0 °F 42% 29.87 in 10.0 mi SW 4.6 mph - N/A   Mostly Cloudy
9:51 AM 66.9 °F 37.9 °F 34% 29.86 in 10.0 mi NW 5.8 mph - N/A   Mostly Cloudy
10:51 AM 69.1 °F 39.0 °F 33% 29.85 in 10.0 mi Calm Calm - N/A   Mostly Cloudy
11:51 AM 71.1 °F 41.0 °F 34% 29.83 in 10.0 mi WNW 6.9 mph - N/A   Scattered Clouds
12:51 PM 73.0 °F 42.1 °F 33% 29.81 in 10.0 mi West 13.8 mph - N/A   Mostly Cloudy
1:51 PM 73.0 °F 37.9 °F 28% 29.80 in 10.0 mi West 17.3 mph - N/A   Mostly Cloudy
2:51 PM 72.0 °F 37.0 °F 28% 29.81 in 10.0 mi West 19.6 mph 28.8 mph N/A   Mostly Cloudy
3:51 PM 73.0 °F 37.0 °F 27% 29.81 in 10.0 mi WSW 9.2 mph - N/A   Mostly Cloudy
4:51 PM 72.0 °F 37.0 °F 28% 29.81 in 10.0 mi West 17.3 mph 20.7 mph N/A   Scattered Clouds
5:51 PM 70.0 °F 37.0 °F 30% 29.82 in 10.0 mi WSW 9.2 mph - N/A   Scattered Clouds
6:51 PM 69.1 °F 37.0 °F 31% 29.84 in 10.0 mi SW 6.9 mph - N/A   Partly Cloudy
7:51 PM 66.9 °F 37.0 °F 33% 29.86 in 10.0 mi South 3.5 mph - N/A   Partly Cloudy
8:51 PM 66.0 °F 37.0 °F 34% 29.87 in 10.0 mi West 6.9 mph - N/A   Partly Cloudy
9:51 PM 66.0 °F 36.0 °F 33% 29.88 in 10.0 mi WNW 6.9 mph - N/A   Partly Cloudy
10:51 PM 64.9 °F 36.0 °F 34% 29.86 in 10.0 mi West 6.9 mph - N/A   Partly Cloudy
11:51 PM 62.1 °F 37.0 °F 39% 29.88 in 10.0 mi SW 3.5 mph - N/A   Partly Cloudy